Bangkok (Don Mueang), Thailand

3:55 AM +07 on August 22, 2017 (GMT +0700)
Bangkok International

Weather History for VTBD - October, 2012

Change the Weather History Date:

Thursday, October 4, 2012

  Actual Average Record
Temperature  
Mean Temperature 86 °F -  
Max Temperature 93 °F 89 °F 95 °F (1996)
Min Temperature 80 °F 76 °F 71 °F (2011)
Cooling Degree Days 22    
Growing Degree Days 36 (Base 50)    
Moisture  
Dew Point 73 °F    
Average Humidity 68    
Maximum Humidity 84    
Minimum Humidity 39    
Precipitation  
Precipitation 0.00 in 0.21 in - ()
Sea Level Pressure  
Sea Level Pressure 29.75 in    
Wind  
Wind Speed 6 mph ()    
Max Wind Speed 14 mph    
Max Gust Speed -    
Visibility 6.2 miles    
Events      
Averages and records for this station are not official NWS values.
T = Trace of Precipitation, MM = Missing Value Source: Averaged Metar Reports

Daily Weather History Graph

Daily Weather History Graph

Search for Another Location

Airport or City:

Trip Planner

Search our weather history database for the weather conditions in past years. The results will help you decide how hot, cold, wet, or windy it might be!

Date:

Astronomy

Oct. 04, 2012 Rise Set
Actual Time 6:07 AM +07 6:05 PM +07
Civil Twilight 5:45 AM +07 6:26 PM +07
Nautical Twilight 5:21 AM +07 6:51 PM +07
Astronomical Twilight 4:56 AM +07 7:15 PM +07
Moon 8:59 PM +07 (10/4) 9:15 AM +07 (10/4)
Length of Visible Light 12h 40m
Length of Day
11h 57m
Waning Gibbous, 85% of the Moon is Illuminated
Oct 4
Waning Gibbous
Oct 8
Last Quarter
Oct 15
New
Oct 22
First Quarter
Oct 30
Full

Hourly Weather History & Observations

Time (+07) Temp. Heat Index Dew Point Humidity Pressure Visibility Wind Dir Wind Speed Gust Speed Precip Events Conditions
12:00 AM 82.4 °F 88.2 °F 73.4 °F 74% 29.80 in 6.2 mi SW 4.6 mph - N/A   Mostly Cloudy
12:30 AM 80.6 °F 85.4 °F 73.4 °F 79% 29.80 in 6.2 mi SW 4.6 mph - N/A   Mostly Cloudy
1:00 AM 81 °F - 73 °F 71% 29.80 in 6 mi SSW 8.1 mph - -   Scattered Clouds
1:00 AM 80.6 °F 85.4 °F 73.4 °F 79% 29.77 in 6.2 mi SSW 8.1 mph - N/A   Mostly Cloudy
1:30 AM 80.6 °F 85.4 °F 73.4 °F 79% 29.77 in 6.2 mi SSW 6.9 mph - N/A   Mostly Cloudy
2:00 AM 80.6 °F 85.4 °F 73.4 °F 79% 29.77 in 6.2 mi WSW 3.5 mph - N/A   Mostly Cloudy
2:30 AM 80.6 °F 85.4 °F 73.4 °F 79% 29.77 in 6.2 mi SW 6.9 mph - N/A   Mostly Cloudy
3:00 AM 80.6 °F 85.4 °F 73.4 °F 79% 29.77 in 6.2 mi SSW 6.9 mph - N/A   Mostly Cloudy
3:30 AM 82.4 °F 89.5 °F 75.2 °F 79% 29.74 in 6.2 mi WSW 3.5 mph - N/A   Mostly Cloudy
4:00 AM 82.4 °F 89.5 °F 75.2 °F 79% 29.74 in 6.2 mi SW 4.6 mph - N/A   Mostly Cloudy
4:30 AM 82.4 °F 89.5 °F 75.2 °F 79% 29.74 in 6.2 mi SW 3.5 mph - N/A   Mostly Cloudy
5:00 AM 82.4 °F 89.5 °F 75.2 °F 79% 29.74 in 6.2 mi WSW 3.5 mph - N/A   Mostly Cloudy
5:30 AM 80.6 °F 86.2 °F 75.2 °F 84% 29.74 in 6.2 mi WSW 4.6 mph - N/A   Mostly Cloudy
6:00 AM 80.6 °F 85.4 °F 73.4 °F 79% 29.74 in 6.2 mi WSW 3.5 mph - N/A   Scattered Clouds
6:30 AM 80.6 °F 85.4 °F 73.4 °F 79% 29.74 in 6.2 mi SW 8.1 mph - N/A   Scattered Clouds
7:00 AM 81 °F - 74 °F 73% 29.78 in 6 mi SW 8.1 mph - -   Scattered Clouds
7:00 AM 80.6 °F 85.4 °F 73.4 °F 79% 29.77 in 6.2 mi SW 8.1 mph - N/A   Scattered Clouds
7:30 AM 82.4 °F 88.2 °F 73.4 °F 74% 29.77 in 6.2 mi WSW 5.8 mph - N/A   Scattered Clouds
8:00 AM 82.4 °F 88.2 °F 73.4 °F 74% 29.77 in 6.2 mi WSW 4.6 mph - N/A   Scattered Clouds
8:30 AM 86.0 °F 91.8 °F 71.6 °F 62% 29.80 in 6.2 mi WSW 9.2 mph - N/A   Scattered Clouds
9:00 AM 86.0 °F 91.8 °F 71.6 °F 62% 29.80 in 6.2 mi West 8.1 mph - N/A   Scattered Clouds
9:30 AM 86.0 °F 90.4 °F 69.8 °F 58% 29.80 in 6.2 mi WSW 8.1 mph - N/A   Scattered Clouds
10:00 AM 87.8 °F 92.6 °F 69.8 °F 55% 29.80 in 6.2 mi West 5.8 mph - N/A   Scattered Clouds
10:30 AM 89.6 °F 96.2 °F 71.6 °F 55% 29.80 in 6.2 mi WNW 8.1 mph - N/A   Scattered Clouds
11:00 AM 89.6 °F 96.2 °F 71.6 °F 55% 29.80 in 6.2 mi West 5.8 mph - N/A   Scattered Clouds
11:30 AM 91.4 °F 96.8 °F 69.8 °F 49% 29.80 in 6.2 mi WNW 8.1 mph - N/A   Scattered Clouds
12:00 PM 91.4 °F 96.8 °F 69.8 °F 49% 29.77 in 6.2 mi WNW 6.9 mph - N/A   Scattered Clouds
12:30 PM 91.4 °F 98.4 °F 71.6 °F 52% 29.74 in 6.2 mi West 6.9 mph - N/A   Mostly Cloudy
1:00 PM 92 °F - 70 °F 39% 29.75 in 6 mi West 6.9 mph - -   Scattered Clouds
1:00 PM 93.2 °F 98.8 °F 69.8 °F 46% 29.74 in 6.2 mi West 6.9 mph - N/A   Mostly Cloudy
1:30 PM 91.4 °F 98.4 °F 71.6 °F 52% 29.74 in 6.2 mi WNW 11.5 mph - N/A   Mostly Cloudy
2:00 PM 91.4 °F 96.8 °F 69.8 °F 49% 29.71 in 6.2 mi WNW 9.2 mph - N/A   Mostly Cloudy
2:30 PM 91.4 °F 96.8 °F 69.8 °F 49% 29.68 in 6.2 mi NNW 6.9 mph - N/A   Mostly Cloudy
3:00 PM 93.2 °F 97.7 °F 68.0 °F 44% 29.68 in 6.2 mi WSW 4.6 mph - N/A   Mostly Cloudy
3:30 PM 91.4 °F 100.1 °F 73.4 °F 55% 29.68 in 6.2 mi West 4.6 mph - N/A   Mostly Cloudy
4:00 PM 89.6 °F 98.2 °F 73.4 °F 59% 29.68 in 6.2 mi NNW 8.1 mph - N/A   Mostly Cloudy
4:30 PM 87.8 °F 95.6 °F 73.4 °F 62% 29.68 in 6.2 mi WNW 9.2 mph - N/A   Mostly Cloudy
5:00 PM 87.8 °F 95.6 °F 73.4 °F 62% 29.68 in 6.2 mi WSW 6.9 mph - N/A   Mostly Cloudy
5:30 PM 87.8 °F 95.6 °F 73.4 °F 62% 29.68 in 6.2 mi West 4.6 mph - N/A   Mostly Cloudy
6:00 PM 87.8 °F 97.6 °F 75.2 °F 66% 29.71 in 6.2 mi NNW 13.8 mph - N/A   Mostly Cloudy
6:30 PM 86.0 °F 93.4 °F 73.4 °F 66% 29.71 in 6.2 mi NNW 9.2 mph - N/A   Mostly Cloudy
7:00 PM 86 °F - 75 °F 62% 29.73 in 6 mi NNW 5.8 mph - -   Scattered Clouds
7:00 PM 86.0 °F 95.1 °F 75.2 °F 70% 29.71 in 6.2 mi NNW 5.8 mph - N/A   Mostly Cloudy
7:30 PM 84.2 °F 90.9 °F 73.4 °F 70% 29.74 in 6.2 mi ESE 5.8 mph - N/A   Mostly Cloudy
8:00 PM 84.2 °F 94.1 °F 77.0 °F 79% 29.74 in 6.2 mi SSW 5.8 mph - N/A   Mostly Cloudy
8:30 PM 82.4 °F 88.2 °F 73.4 °F 74% 29.74 in 6.2 mi SW 8.1 mph - N/A   Mostly Cloudy
9:00 PM 82.4 °F 89.5 °F 75.2 °F 79% 29.77 in 6.2 mi SSW 5.8 mph - N/A   Mostly Cloudy
9:30 PM 82.4 °F 89.5 °F 75.2 °F 79% 29.77 in 6.2 mi SW 4.6 mph - N/A   Mostly Cloudy
10:00 PM 82.4 °F 89.5 °F 75.2 °F 79% 29.77 in 6.2 mi WSW 4.6 mph - N/A   Mostly Cloudy
10:30 PM 82.4 °F 89.5 °F 75.2 °F 79% 29.80 in 6.2 mi SW 8.1 mph - N/A   Mostly Cloudy
11:00 PM 82.4 °F 89.5 °F 75.2 °F 79% 29.80 in 6.2 mi SW 9.2 mph - N/A   Scattered Clouds
11:30 PM 84.2 °F 94.1 °F 77.0 °F 79% 29.80 in 6.2 mi SSW 5.8 mph - N/A   Scattered Clouds